This demonstration page uses our WeatherBlox Daily Observations layout. Learn more.

Left ArrowRight Arrow

Hourly Observations for January 30, 2017

Temp ( °F °C ) Dew Point ( °F °C ) Humidity (%) Winds ( mph kmh ) Pressure ( in mb ) Visibility ( mi km ) Precip ( " mm )
12:52 am 00:52 Clear 37 2.8 30 -1.1 76 76 WNW 3 6 30.08 1019 10 16 0.00 0.00
1:52 am 01:52 Clear 31 -0.6 28 -2.2 89 89 Calm 30.08 1019 10 16 0.00 0.00
2:52 am 02:52 Clear 30 -1.1 26 -3.3 85 85 Calm 30.07 1018 10 16 0.00 0.00
3:52 am 03:52 Clear 28 -2.2 24 -4.4 85 85 S 3 6 30.06 1018 10 16 0.00 0.00
4:52 am 04:52 Clear 27 -2.8 25 -3.9 92 92 SSE 5 7 30.07 1018 10 16 0.00 0.00
5:52 am 05:52 Clear 28 -2.2 25 -3.9 88 88 S 3 6 30.07 1018 10 16 0.00 0.00
6:52 am 06:52 Clear 28 -2.2 26 -3.3 92 92 SSE 7 11 30.06 1018 10 16 0.00 0.00
7:52 am 07:52 Sunny 32 0 29 -1.7 88 88 S 8 13 30.06 1018 10 16 0.00 0.00
8:52 am 08:52 Sunny 38 3.3 33 0.6 83 83 S 8 13 30.05 1018 10 16 0.00 0.00
9:52 am 09:52 Sunny 45 7.2 34 1.1 66 66 SSW 9 15 30.05 1018 10 16 0.00 0.00
10:52 am 10:52 Sunny 55 12.8 30 -1.1 38 38 W 14 22 30.05 1018 10 16 0.00 0.00
11:52 am 11:52 Sunny 59 15 28 -2.2 31 31 WSW 10 17 30.01 1016 10 16 0.00 0.00
12:52 pm 12:52 Sunny 61 16.1 27 -2.8 27 27 WSW 14 22 29.98 1015 10 16 0.00 0.00
1:52 pm 13:52 Sunny 63 17.2 26 -3.3 25 25 W 13 20 29.93 1014 10 16 0.00 0.00
2:52 pm 14:52 Sunny 64 17.8 27 -2.8 25 25 WSW 15 24 29.91 1013 10 16 0.00 0.00
3:52 pm 15:52 Sunny 64 17.8 26 -3.3 24 24 W 14 22 29.92 1013 10 16 0.00 0.00
4:52 pm 16:52 Sunny 62 16.7 27 -2.8 26 26 WSW 15 24 29.91 1013 10 16 0.00 0.00
5:52 pm 17:52 Clear 56 13.3 28 -2.2 34 34 WSW 7 11 29.93 1014 10 16 0.00 0.00
6:52 pm 18:52 Clear 49 9.4 28 -2.2 44 44 SSW 7 11 29.93 1014 10 16 0.00 0.00
7:52 pm 19:52 Clear 48 8.9 28 -2.2 46 46 SW 7 11 29.93 1014 10 16 0.00 0.00
8:52 pm 20:52 Clear 48 8.9 27 -2.8 44 44 NW 5 7 29.93 1014 10 16 0.00 0.00
9:52 pm 21:52 Clear 46 7.8 28 -2.2 50 50 WNW 5 7 29.94 1014 10 16 0.00 0.00
10:52 pm 22:52 Clear 45 7.2 27 -2.8 49 49 WNW 3 6 29.93 1014 10 16 0.00 0.00
11:52 pm 23:52 Clear 35 1.7 26 -3.3 70 70 Calm 29.94 1014 10 16 0.00 0.00

Powered by AerisWeather